Location: Bear Valley Community Church - Hurst
(32.8460°N, 97.1828°W)
Time: 08:35:09
(UTC+00:00)

Cosmos 1515 Rocket - Pass Details

Date: 05 July 2022
Orbit: 604 x 630 km, 82.5° (Epoch: 17 August)

Event Time Altitude Azimuth Distance (km) Brightness Sun altitude
Rises 09:07:26 0° 354° (N) 2,888 7.7 -23.3°
Reaches altitude 10° 09:09:40 10° 355° (N) 1,975 6.7 -23.0°
Maximum altitude 09:14:03 86° 85° (E) 615 3.4 -22.5°
Enters shadow 09:14:46 62° 167° (SSE) 687 3.5 -22.4°
